Regional Weather Roundup
Issued by NWS Green Bay, WI

Home | Current Version | Previous Version | Graphics & Text | Print | Product List | Glossary Off
Versions: 1 2 3 4 5 6 7 8 9 10 11 12 13 14 15 16 17 18 19 20 21 22 23 24 25 26 27 28 29 30 31 32 33 34 35 36 37 38 39 40 41 42 43 44 45 46 47 48 49 50

000
ASUS43 KGRB 260659
RWRGRB

NORTH-CENTRAL AND NORTHEAST WISCONSIN REGIONAL WEATHER ROUNDUP
NATIONAL WEATHER SERVICE GREEN BAY WI
100 AM CST FRI DEC 26 2014

WIZ005-009-010>012-018-019-260800-
NORTH CENTRAL WISCONSIN

CITY           SKY/WX    TMP DP  RH WIND       PRES   REMARKS
IRONWOOD       CLOUDY    30  30 100 CALM      29.87S
MANITOWISH WTR NOT AVBL
ARBOR VITAE    NOT AVBL
EAGLE RIVER    NOT AVBL
LAND O LAKES   NOT AVBL
RHINELANDER    CLOUDY    28  27  96 E3        29.88R FOG
PHILLIPS       NOT AVBL
ANTIGO         NOT AVBL
TOMAHAWK       NOT AVBL
MERRILL        NOT AVBL
$$

WIZ013-073-260800-
NORTHEAST WISCONSIN

CITY           SKY/WX    TMP DP  RH WIND       PRES   REMARKS
IRON MOUNTAIN  CLOUDY    30  29  96 CALM      29.90R FOG
MARINETTE      PTCLDY    28  27  93 CALM      29.93S
$$

WIZ017-030-035>037-045-260800-
CENTRAL WISCONSIN

CITY           SKY/WX    TMP DP  RH WIND       PRES   REMARKS
MEDFORD        NOT AVBL
WAUSAU         MOCLDY    28  26  92 E3        29.86F FOG
MOSINEE        NOT AVBL
MARSHFIELD     MOCLDY    28  25  88 NE5       29.85F FOG
WISC RAPIDS    PTCLDY    27  24  89 CALM      29.88F FOG
STEVENS POINT  NOT AVBL
WAUPACA        NOT AVBL
SHAWANO        NOT AVBL
CLINTONVILLE   NOT AVBL
$$

WIZ038-039-048-051-260800-
FOX VALLEY

CITY           SKY/WX    TMP DP  RH WIND       PRES   REMARKS
NWS GREEN BAY  PTCLDY    31  29  92 CALM      29.92F FOG
APPLETON       NOT AVBL
OSHKOSH        PTCLDY    34  31  88 S9        29.91F
FOND DU LAC    PTCLDY    37  32  82 S13       29.91F
$$

WIZ022-050-052-260800-
EAST CENTRAL WISCONSIN

CITY           SKY/WX    TMP DP  RH WIND       PRES   REMARKS
STURGEON BAY     N/A     34  30  86 S6        29.95F
MANITOWOC      NOT AVBL
SHEBOYGAN      MOCLDY    37  32  82 S6        29.94F
$$

LMZ563-521-522-541>543-260800-
LAKESHORE

STATION/POSITION TIME  TEMP    WIND        PRES    VSBY  WAVE
                       AIR SEA DIR/SP/G                  HT/PER
                 (UTC) (F)     (DEG/KT/KT) (MB)    (MI)  (FT/S)
SHEBOYGAN LKSHOR 0600   40 37  210/  9/ 10 1015.0F
KEWAUNEE LKSHORE 0600   32      CALM  /  1 1013.4R
ALGOMA MARINA    0600             CALM       N/A
NORTHPORT PIER   0600   32        CALM     1014.2R
SISTER BAY LKSHO 0600          160/  6/  7   N/A
CHAMBERS ISLAND  0600   30      CALM  /  2 1014.2S
MENOMINEE LKSHOR 0600   33     160/  4/  5 1014.5R
$$



USA.gov is the U.S. government's official web portal to all federal, state and local government web resources and services.